Regional Weather Roundup
Issued by NWS

Home | Current Version | Previous Version | Graphics & Text | Print | Product List | Glossary On
Versions: 1 2 3 4 5 6 7 8 9 10 11 12 13 14 15 16 17 18 19 20 21 22 23 24 25 26 27 28 29 30 31 32 33 34 35 36 37 38 39 40 41 42 43 44 45 46 47 48 49 50
000
ASUS45 KTFX 241619
RWRMT
MONTANA HOURLY WEATHER ROUNDUP
NATIONAL WEATHER SERVICE GREAT FALLS MT
1019 AM MDT FRI OCT 24 2014

NOTE: "FAIR" INDICATES FEW OR NO CLOUDS BELOW 12000 FEET WITH NO
SIGNIFICANT WEATHER AND/OR OBSTRUCTIONS TO VISIBILITY.

* THESE STATIONS ARE NOT UNDER NWS QUALITY CONTROL. THEY DO NOT
   REPORT WEATHER SUCH AS PRECIPITATION OR FOG.

MTZ001>007-043-241700-
WEST OF THE DIVIDE
CITY           SKY/WX    TMP DP  RH WIND       PRES   REMARKS
KALISPELL      CLOUDY    46  37  71 SW3       30.09R
MISSOULA       CLOUDY    45  43  93 CALM      30.14R
BUTTE          LGT RAIN  45  36  71 NW7       30.14R
MULLAN PASS    CLOUDY    34  30  85 VRB3      30.08R
* ESSEX        N/A       40  38  93 E1         N/A
* LINCOLN      N/A       41  36  82 S2         N/A
* POLSON       N/A       42  36  79 S1         N/A
* RONAN APT    CLOUDY    45  39  80 N/A        N/A
* SEELEY LAKE  N/A       39  37  93 NE2        N/A
* THOMP F APT  CLOUDY    42  38  86 NE6G11     N/A
* YAAK HILL    N/A       42  39  89 E1         N/A
$$

MTZ008-052>055-241700-
SOUTHWEST MONTANA
CITY           SKY/WX    TMP DP  RH WIND       PRES   REMARKS
BOZEMAN        CLOUDY    52  39  61 W5        30.09R
DILLON         CLOUDY    48  39  71 S5        30.10R
W YELLOWSTONE  CLOUDY    45  37  74 S5        30.20R
* THREE FORKS  PTSUNNY   48  48 100 N/A        N/A
* BOULDER HILL N/A       44  32  63 SE1        N/A
* MONIDA PASS  N/A       41  39  93 SE14G20    N/A
* RAYNOLDS PAS N/A       43  28  56 S11        N/A
* WHITEHALL    N/A       51  37  59 NW5G10     N/A
* WISE RIVER   N/A       42  35  76 SW5G18     N/A
$$

MTZ009>010-012-014-046-048-049-054-241700-
EAST SLOPES AND CENTRAL MONTANA
CITY           SKY/WX    TMP DP  RH WIND       PRES   REMARKS
CUT BANK       PTCLDY    46  30  54 W26G33    29.99R
GREAT FALLS    CLOUDY    50  34  54 SW10      30.04R
HELENA         CLOUDY    48  37  66 W12       30.10R
MALMSTROM AFB  CLOUDY    50  36  59 SW13      30.06R
* CONRAD       PTCLDY    46  34  63 S9         N/A
* DEARBORN     N/A       53  31  43 S8G14      N/A
* EAST GLACIER N/A       42  28  58 W20G27     N/A
* MONARCH      N/A       45  27  49 SW16G23    N/A
* PENDROY      N/A       47  27  46 W24G35     N/A
* ROGERS PASS  N/A       39  32  76 E11G20     N/A   WCI  32
* SAINT MARY   N/A       40  33  76 S4G12      N/A
* SWEET GRASS  N/A       47  27  46 W27G38     N/A
* WHITE SULPH  N/A       46  34  63 NW10G19    N/A
$$

MTZ011-013-016-021-035-040-045-047-050-051-241700-
NORTH CENTRAL MONTANA
CITY           SKY/WX    TMP DP  RH WIND       PRES   REMARKS
HAVRE          CLOUDY    54  32  43 W18       29.99R
LEWISTOWN      CLOUDY    52  37  57 W9        30.06R
* CHINOOK      CLOUDY    52  34  50 W12       29.99R
* FORT BENTON  CLOUDY    54  36  51 SW14      30.02S
* CHESTER      N/A       47  30  52 SW8G13     N/A
* DENTON       N/A       52  37  57 SW10       N/A
* GEYSER       N/A       51  32  48 SW17G26    N/A
* JUDITH GAP   N/A       48  40  74 NW10G15    N/A
* LOMA         N/A       52  34  50 SW16G22    N/A
$$

MTZ017>020-022>027-061-062-241700-
NORTHEAST MONTANA
CITY           SKY/WX    TMP DP  RH WIND       PRES   REMARKS
GLASGOW        PTSUNNY   54  34  47 W23G29    29.95R
GLENDIVE       CLOUDY    55  37  51 NW12G17   30.00R
JORDAN         CLOUDY    57  36  46 W18       29.99R
SIDNEY         PTSUNNY   59  37  44 W17G23    29.96R
WOLF POINT     PTSUNNY   55  41  59 W12       29.95R
* BEAVER HILL  N/A       53  37  55 SW11       N/A
* CIRCLE       N/A       58  36  44 NW16G24    N/A
* LINDSAY DVD  N/A       55  36  49 W19G24     N/A
* NAVAJO       N/A       54  34  47 W25G35     N/A
$$

MTZ028>042-056>058-241700-
SOUTHCENTRAL AND SOUTHEAST MONTANA
CITY           SKY/WX    TMP DP  RH WIND       PRES   REMARKS
BAKER          PTCLDY    57  37  47 W12       30.02R
BILLINGS       CLOUDY    55  37  51 N3        30.05R
LIVINGSTON     CLOUDY    57  37  47 W16       30.05R
MILES CITY     CLOUDY    54  37  53 SW5       30.02R
* LAUREL APT   CLOUDY    54  34  47 N/A        N/A
* ROUNDUP APT  CLOUDY    50  37  61 N/A        N/A
* ALZADA       N/A       55  34  45 SW5        N/A
* HYSHAM       N/A       55  33  43 E1         N/A
* LAME DEER    N/A       52  33  48 N14G22     N/A
* REED POINT   N/A       42  39  89 E1         N/A
* ROSCOE HILL  N/A       53  24  32 E9G14      N/A
$$

REGIONAL REPORTS...DAKOTAS
CITY           SKY/WX    TMP DP  RH WIND       PRES   REMARKS
WILLISTON      PTSUNNY   57  37  47 W16G24    29.91R
DICKINSON      SUNNY     57  37  47 NW14      29.94R
BEACH          N/A       55  37  51 W12G18    29.99R
CROSBY         SUNNY     55  36  49 W18G24    29.86R
TIOGA          CLOUDY    55  37  51 W15       29.91R
BISMARCK       PTCLDY    59  37  44 W7        29.89R
GRAND FORKS    PTSUNNY   63  39  41 W9        29.76S
FARGO          PTCLDY    55  41  59 SW12      29.83R
BUFFALO SD     PTCLDY    59  36  42 NW13      29.94R
RAPID CITY     PTCLDY    66  36  33 NW9       30.00R
$$

REGIONAL REPORTS...WYOMING/IDAHO/WASHINGTON
CITY           SKY/WX    TMP DP  RH WIND       PRES   REMARKS
GILLETTE       CLOUDY    57  36  46 NE6       30.06R
SHERIDAN       PTSUNNY   52  34  50 S3        30.06R
CODY           CLOUDY    64  30  28 SW8G20    30.07S
YELLOWSTONE LA PTSUNNY   45  30  56 CALM      30.25R
SALMON         CLOUDY    46  45  96 CALM      30.12R
MULLAN PASS    CLOUDY    34  30  85 VRB3      30.08S
SAND POINT     CLOUDY    45  43  93 CALM      30.10R
SPOKANE        CLOUDY    43  39  86 CALM      30.09R
$$

REGIONAL REPORTS...ALBERTA
CITY           SKY/WX    TMP DP  RH WIND       PRES   REMARKS
CALGARY        PTCLDY    34  25  70 N3        29.89R
LETHBRIDGE     PTSUNNY   50  25  38 SW24G30   29.93R
MEDICINE HAT   PTSUNNY   52  28  40 W17G29    29.90R
EDMONTON       PTSUNNY   43  30  60 W13       29.83R
WATERTON GATE  N/A       46  27  48 SW18G26    N/A
CARDSTON       N/A       46  30  54 SW9        N/A
MILK RIVER     N/A       48  28  46 W29G38     N/A
$$

REGIONAL REPORTS...SASKATCHEWAN
CITY           SKY/WX    TMP DP  RH WIND       PRES   REMARKS
SWIFT CURRENT  SUNNY     45  32  60 W15G23    29.85R
MOOSE JAW      PTCLDY    52  36  55 W23       29.79R
REGINA         PTCLDY    50  37  61 W20G26    29.76R
VAL MARIE      N/A       48  34  59 W17        N/A
ASSINIBOIA     N/A       52  32  47 W28G35     N/A
CORONACH       N/A       54  34  47 W24G35     N/A

$$




USA.gov is the U.S. government's official web portal to all federal, state and local government web resources and services.